[[{"header":{"parameterUnit":"m.s-1","parameterCategory":1,"la1":30.2991,"la2":30.254,"lo1":-89.0895,"lo2":-89.0444,"dy":0.0017,"dx":0.0017,"nx":28,"ny":28,"refTime":"2025-08-14T03:00:00:Z","depth":0,"parameterNumber":2,"parameterNumberName":"U-component_of_WINDS"},"data":[0,0,0,0,0,0,0,0,0,0,0,0,0,0,0,0,0,0,0,0,0,0,0,0,0,0,0,0,0,0,0,0,0,0,0,0,0,0,0,0,0,0,0,0,0,0,0,0,0,0,0,0,0,0,0,0,0,0,0.4873,0.4874,0,0.4949,0.4949,0.495,0.4965,0.4965,0.4964,0.4964,0.5042,0.5045,0.5048,0,0,0,0,0,0,0,0,0,0,0,0,0,0.4743,0.4746,0.4873,0.4874,0.4875,0.4948,0.495,0.4951,0.4966,0.4965,0.4964,0.4963,0.5042,0.5045,0.5048,0,0,0,0,0,0,0,0,0,0,0,0,0,0.4807,0.4746,0.4873,0.4891,0.4894,0.4948,0.495,0.4951,0.4966,0.4965,0.4964,0.4963,0.504,0.5044,0.5048,0.509,0,0,0.506,0.5062,0,0,0,0,0,0,0,0,0.4804,0.4812,0.4888,0.489,0.4893,0.4947,0.4933,0.4998,0.4966,0.4938,0.4964,0.4963,0.5011,0.5018,0.5034,0.5094,0.5097,0.5061,0.5063,0.5065,0.5066,0,0,0,0,0,0,0,0.4799,0.4809,0.4903,0.4889,0.4892,0.4896,0.4904,0.4945,0.4979,0.4941,0.4942,0.4951,0.5013,0.503,0.5036,0.5098,0.5061,0.5064,0.5067,0.5068,0.5197,0.5198,0,0,0,0,0,0,0.4791,0.4805,0.4901,0.4905,0.4845,0.4899,0.4908,0.493,0.4979,0.4985,0.4951,0.4951,0.5024,0.5031,0.5039,0.5091,0.5065,0.5068,0.5071,0.5196,0.5198,0.5199,0,0,0,0,0,0,0.4789,0.48,0.4898,0.4856,0.4868,0.4902,0.4927,0.4932,0.495,0.4987,0.4993,0.4963,0.5023,0.5033,0.5077,0.5094,0.507,0.5074,0.5195,0.5197,0.5198,0.5197,0,0,0,0,0,0,0.4785,0.4799,0.4815,0.4856,0.4871,0.4935,0.4928,0.4934,0.4956,0.4957,0.4999,0.5005,0.5023,0.5071,0.5081,0.5099,0.5077,0.5194,0.5196,0.5198,0.5195,0.5198,0.52,0,0,0,0,0,0.478,0.4811,0.4815,0.4827,0.4891,0.4936,0.4944,0.4964,0.4957,0.4974,0.4998,0.5004,0.5091,0.5076,0.5087,0.5106,0.5193,0.5195,0.5197,0.5194,0.5198,0.52,0,0,0,0,0,0,0.4772,0.4817,0.4822,0.4868,0.4898,0.4938,0.496,0.4967,0.5,0.4999,0.5022,0.5032,0.5075,0.5095,0.5078,0.515,0.5141,0.5146,0.5135,0.5138,0.5141,0.5135,0.508,0,0,0,0,0,0.4775,0.4807,0.4845,0.4882,0.4896,0.4925,0.4945,0.4958,0.499,0.5003,0.503,0.5062,0.5096,0.5118,0.5152,0.5198,0.5208,0.5217,0.522,0.5221,0.5226,0.5252,0.5257,0.5207,0.5207,0.5206,0,0,0.4783,0.4811,0.483,0.4881,0.4905,0.4938,0.4936,0.4971,0.4996,0.5009,0.5052,0.5073,0.511,0.5155,0.5177,0.5173,0.5241,0.5225,0.5226,0.5229,0.5255,0.5259,0.5264,0.5208,0.5208,0.5208,0,0,0.4813,0.4838,0.4871,0.4896,0.4933,0.4952,0.496,0.5,0.5014,0.5058,0.5069,0.5099,0.5157,0.5183,0.5204,0.5244,0.5251,0.5254,0.5267,0.5293,0.5297,0.53,0.5315,0.532,0.5258,0.5258,0.5258,0,0.4818,0.4867,0.4888,0.4922,0.4944,0.4957,0.4991,0.5015,0.5061,0.5076,0.5072,0.5146,0.5171,0.5223,0.5233,0.5249,0.526,0.525,0.5295,0.5298,0.5302,0.5316,0.5322,0.5258,0.5258,0.5258,0.5258,0,0.4872,0.4906,0.4928,0.4973,0.4998,0.5032,0.5057,0.508,0.509,0.511,0.5155,0.5186,0.5226,0.5239,0.525,0.5293,0.529,0.529,0.5282,0.5307,0.5321,0.5326,0.5259,0.5259,0.5259,0.5259,0,0,0.4899,0.4954,0.4962,0.4983,0.5025,0.5052,0.5087,0.5126,0.5145,0.5177,0.5207,0.5256,0.5256,0.528,0.5294,0.5316,0.5346,0.5313,0.5314,0.5319,0.5396,0.5396,0.5402,0.5351,0.5352,0.5353,0.5393,0,0.4935,0.4998,0.5017,0.5069,0.5102,0.5114,0.5145,0.5174,0.5193,0.5224,0.5245,0.528,0.5277,0.5292,0.5314,0.5338,0.5362,0.5335,0.538,0.5381,0.537,0.5409,0.541,0.5446,0.5398,0.5399,0.54,0,0.4986,0.5018,0.5074,0.5112,0.5126,0.5153,0.5191,0.5219,0.5253,0.5266,0.5292,0.5304,0.5341,0.533,0.5383,0.5364,0.5383,0.5397,0.5399,0.5405,0.5392,0.5416,0.5458,0.5463,0.5409,0.5408,0.5407,0,0.5001,0.5058,0.5099,0.5116,0.5162,0.518,0.52,0.5233,0.5255,0.5288,0.5303,0.534,0.536,0.5389,0.541,0.5401,0.5461,0.5452,0.5472,0.5472,0.5485,0.5484,0.5531,0.5497,0.5496,0.5496,0.5496,0,0.5039,0.5073,0.5106,0.5132,0.517,0.5192,0.5229,0.5249,0.5279,0.5308,0.5321,0.5349,0.5376,0.5407,0.5424,0.5465,0.5474,0.5485,0.549,0.5484,0.5483,0.5498,0.5496,0.5498,0.5498,0.5497,0.5497,0,0.5063,0.5087,0.5132,0.5171,0.5182,0.5209,0.5242,0.5268,0.5287,0.5324,0.5334,0.5365,0.5403,0.5427,0.5475,0.5487,0.5531,0.5535,0.552,0.5522,0.5541,0.5539,0.56,0.5609,0.5568,0.5568,0.5569,0,0.5086,0.5112,0.5154,0.5175,0.5195,0.5228,0.5251,0.5273,0.5297,0.5337,0.5357,0.5396,0.5427,0.5487,0.5514,0.555,0.5555,0.5574,0.5561,0.5555,0.5556,0.5554,0.5557,0.5576,0.5576,0.5577,0.5577,0,0.5125,0.5135,0.5168,0.5204,0.5231,0.5261,0.5291,0.5307,0.5334,0.536,0.5398,0.5423,0.5472,0.551,0.5549,0.557,0.5578,0.5581,0.5587,0.5583,0.5573,0.5579,0.5526,0.5579,0.5579,0.5579,0.5579,0.5579,0.5149,0.5173,0.5207,0.5242,0.5267,0.5295,0.532,0.5343,0.5375,0.5416,0.5428,0.5468,0.5501,0.5555,0.5576,0.5608,0.5606,0.5616,0.5618,0.562,0.5621,0.5568,0.5615,0.5615,0.5615,0.5615,0.5615,0,0.5189,0.5211,0.5244,0.5285,0.5313,0.5318,0.5351,0.5375,0.541,0.544,0.5471,0.5515,0.5552,0.5581,0.562,0.5639,0.5644,0.5649,0.5648,0.5652,0.562,0.5611,0.5644,0.5644,0.5644,0.5644,0.5644,0.5644,0.5213,0.5254,0.5269,0.5322,0.5344,0.5383,0.5402,0.5428,0.5452,0.55,0.5531,0.555,0.558,0.562,0.5655,0.5662,0.5676,0.568,0.5688,0.5658,0.5655,0.5652,0.5643,0.5682,0.5682,0.5718,0.5718,0.5718]},{"header":{"parameterUnit":"m.s-1","parameterCategory":1,"la1":30.2991,"la2":30.254,"lo1":-89.0895,"lo2":-89.0444,"dy":0.0017,"dx":0.0017,"nx":28,"ny":28,"refTime":"2025-08-14T03:00:00:Z","depth":0,"parameterNumber":3,"parameterNumberName":"V-component_of_WINDS"},"data":[0,0,0,0,0,0,0,0,0,0,0,0,0,0,0,0,0,0,0,0,0,0,0,0,0,0,0,0,0,0,0,0,0,0,0,0,0,0,0,0,0,0,0,0,0,0,0,0,0,0,0,0,0,0,0,0,0,0,2.0464,2.0465,0,2.0525,2.0526,2.0527,2.0553,2.0553,2.0553,2.0553,2.0613,2.0614,2.0616,0,0,0,0,0,0,0,0,0,0,0,0,0,2.0364,2.0366,2.0464,2.0465,2.0465,2.0525,2.0526,2.0527,2.0553,2.0553,2.0553,2.0553,2.0612,2.0614,2.0616,0,0,0,0,0,0,0,0,0,0,0,0,0,2.0415,2.0367,2.0464,2.0486,2.0488,2.0525,2.0526,2.0527,2.0553,2.0553,2.0553,2.0553,2.0612,2.0614,2.0617,2.0635,0,0,2.0624,2.0625,0,0,0,0,0,0,0,0,2.0412,2.0418,2.0482,2.0484,2.0487,2.0531,2.0513,2.0563,2.0553,2.0529,2.0553,2.0553,2.0586,2.059,2.0602,2.0637,2.064,2.0624,2.0626,2.0627,2.0628,0,0,0,0,0,0,0,2.0408,2.0416,2.0488,2.0483,2.0486,2.0491,2.0498,2.0522,2.0557,2.0531,2.0533,2.054,2.0587,2.0599,2.0604,2.0641,2.0624,2.0627,2.0628,2.0629,2.069,2.069,0,0,0,0,0,0,2.0402,2.0413,2.0486,2.049,2.0449,2.0493,2.0501,2.0517,2.0557,2.0563,2.054,2.0541,2.0595,2.0601,2.0606,2.0627,2.0627,2.0629,2.0631,2.069,2.069,2.069,0,0,0,0,0,0,2.0399,2.0408,2.0484,2.0452,2.0462,2.0495,2.0513,2.0519,2.0531,2.0564,2.057,2.0547,2.0595,2.0602,2.0627,2.063,2.063,2.0633,2.069,2.069,2.069,2.0672,0,0,0,0,0,0,2.0397,2.0407,2.0416,2.0452,2.0463,2.0505,2.0514,2.052,2.0536,2.0538,2.0572,2.0577,2.0596,2.0623,2.0629,2.0633,2.0635,2.0689,2.069,2.069,2.0672,2.0671,2.067,0,0,0,0,0,2.0393,2.0409,2.0416,2.0425,2.0475,2.0505,2.0512,2.0534,2.0536,2.0544,2.0564,2.0576,2.0628,2.0625,2.0632,2.0637,2.0689,2.069,2.069,2.0672,2.0671,2.067,0,0,0,0,0,0,2.0372,2.0414,2.0423,2.0451,2.0474,2.051,2.0521,2.0532,2.0555,2.0556,2.0581,2.0588,2.061,2.0626,2.0622,2.0655,2.066,2.0661,2.0644,2.0643,2.0642,2.0637,2.0637,0,0,0,0,0,2.0371,2.0393,2.0428,2.0449,2.046,2.0488,2.0502,2.0517,2.0542,2.0551,2.0574,2.0596,2.0617,2.0631,2.0653,2.0674,2.068,2.0681,2.068,2.0679,2.068,2.0689,2.0689,2.0691,2.0691,2.0691,0,0,2.0369,2.0394,2.0407,2.0445,2.0465,2.0485,2.0497,2.0518,2.0533,2.0555,2.0579,2.0595,2.0622,2.0644,2.0655,2.0658,2.0681,2.0679,2.0678,2.068,2.069,2.0689,2.0689,2.0691,2.0691,2.0691,0,0,2.0375,2.0397,2.0416,2.0435,2.0464,2.0482,2.0486,2.0519,2.0531,2.0556,2.0571,2.0588,2.0625,2.0642,2.0656,2.0664,2.0674,2.067,2.0665,2.0674,2.0674,2.0674,2.0674,2.0675,2.0671,2.0671,2.0671,0,2.0368,2.0401,2.0424,2.0444,2.0459,2.0479,2.0496,2.0513,2.0548,2.0557,2.056,2.0605,2.0624,2.0649,2.0651,2.0662,2.0665,2.0666,2.0672,2.0672,2.0673,2.0673,2.0674,2.067,2.067,2.067,2.067,0,2.0389,2.0411,2.0422,2.0455,2.0471,2.049,2.0514,2.0527,2.0539,2.0556,2.0578,2.0602,2.0627,2.0634,2.0647,2.066,2.0661,2.0668,2.0673,2.0671,2.0672,2.0673,2.0669,2.0669,2.0669,2.0669,0,0,2.0386,2.0429,2.0433,2.0446,2.0478,2.0495,2.0513,2.0537,2.0547,2.0569,2.0584,2.0612,2.0618,2.0633,2.0647,2.0655,2.0656,2.0661,2.0662,2.0658,2.0669,2.0663,2.0664,2.0664,2.0664,2.0664,2.0667,0,2.0395,2.043,2.0449,2.0475,2.0493,2.051,2.0526,2.0546,2.0561,2.0577,2.0594,2.0613,2.062,2.0629,2.0637,2.0655,2.0659,2.0655,2.0675,2.0676,2.0668,2.0665,2.0659,2.0661,2.0667,2.0668,2.0668,0,2.0412,2.0433,2.046,2.0487,2.0495,2.0509,2.0531,2.0547,2.0569,2.0579,2.0594,2.0608,2.0625,2.0628,2.065,2.0647,2.0656,2.0665,2.0665,2.0668,2.0671,2.0666,2.0662,2.0662,2.0669,2.0669,2.0669,0,2.0404,2.0439,2.0459,2.0471,2.0503,2.0511,2.0525,2.0547,2.0559,2.0578,2.0586,2.0606,2.0617,2.0631,2.0649,2.065,2.0668,2.0674,2.0675,2.0675,2.0679,2.0678,2.0675,2.0686,2.0686,2.0686,2.0686,0,2.0412,2.0428,2.0456,2.0468,2.0485,2.0505,2.0521,2.0536,2.0554,2.0568,2.0583,2.0596,2.0618,2.0633,2.0646,2.0661,2.0666,2.0673,2.0676,2.0672,2.067,2.0678,2.0678,2.0686,2.0686,2.0686,2.0686,0,2.0407,2.0427,2.045,2.0477,2.0484,2.0495,2.0518,2.0529,2.0544,2.0561,2.0566,2.0589,2.0606,2.0625,2.0648,2.0657,2.0671,2.0676,2.0663,2.0665,2.0665,2.0664,2.0667,2.0667,2.0678,2.0678,2.0677,0,2.0411,2.0423,2.0451,2.0461,2.0474,2.0491,2.0503,2.0523,2.0534,2.0558,2.0565,2.0584,2.06,2.0626,2.0644,2.0661,2.0666,2.0665,2.0669,2.0662,2.0664,2.0663,2.0663,2.0664,2.0664,2.0664,2.0664,0,2.0414,2.0422,2.044,2.046,2.0473,2.049,2.0507,2.0514,2.0536,2.0548,2.0566,2.0578,2.0601,2.0618,2.0637,2.0649,2.0659,2.0662,2.0663,2.0658,2.065,2.0653,2.066,2.0662,2.0663,2.0663,2.0663,2.0663,2.0413,2.0423,2.0443,2.0461,2.0475,2.049,2.0501,2.0516,2.0532,2.0552,2.0562,2.0579,2.0597,2.0623,2.0635,2.0647,2.065,2.0652,2.0653,2.0652,2.065,2.0648,2.065,2.0651,2.0651,2.0651,2.0651,0,2.0415,2.0428,2.0444,2.0467,2.048,2.0488,2.0506,2.0517,2.0531,2.0548,2.0562,2.058,2.0596,2.0614,2.0631,2.0637,2.0641,2.064,2.064,2.0642,2.0647,2.0644,2.0636,2.0636,2.0636,2.0636,2.0636,2.0636,2.0418,2.0435,2.0445,2.0468,2.0481,2.0497,2.0507,2.0519,2.0532,2.0552,2.0565,2.0576,2.0592,2.061,2.0623,2.0628,2.0633,2.063,2.0636,2.064,2.0642,2.0643,2.064,2.0631,2.0631,2.0629,2.0629,2.0629]}]]